Tracking 29892 objects as of 21-Nov-2024
HD Live streaming from Space Station
objects crossing your sky now

STARLINK-1456

Track STARLINK-1456 now!
10-day predictions
STARLINK-1456 is classified as:


NORAD ID: 45673
Int'l Code: 2020-035S
Perigee: 553.1 km
Apogee: 555.2 km
Inclination: 53.1 °
Period: 95.6 minutes
Semi major axis: 6925 km
RCS: Unknown
Launch date: June 4, 2020
Source: United States (US)
Launch site: AIR FORCE EASTERN TEST RANGE (AFETR)
Your satellite tracking list
Your tracking list is empty




NASA's NSSDC Master Catalog

Two Line Element Set (TLE):
1 45673U 20035S   24325.61942261  .00027870  00000-0  18792-2 0  9995
2 45673  53.0538  34.8027 0001464  84.5449 275.5706 15.06466256246874
Source of the keplerian elements: AFSPC